DW4326 Weather Reports


time (UTC)temp
C
wind
direction
speed
KPH
gust
KPH
rain 1hr
cm
rain 24hr
cm
rain mn
cm
humidity
%
barometer
mb
20260905135116 18 237 0.0 4.8 0.00 0.03 0.00 91 1011.1
20260905133616 17 287 0.0 8.0 0.00 0.03 0.00 95 1010.8
20260905132118 16 321 0.0 0.0 0.00 0.03 0.00 99 1010.8
20260905130616 16 311 0.0 0.0 0.00 0.03 0.00 99 1010.8
20260905125116 15 330 0.0 0.0 0.00 0.03 0.00 99 1010.8
20260905123616 14 330 0.0 0.0 0.00 0.03 0.00 99 1011.1
20260905122118 14 330 0.0 0.0 0.00 0.03 0.00 99 1011.0
20260905120614 13 330 0.0 0.0 0.00 0.03 0.00 99 1010.9
20260905115113 13 330 0.0 0.0 0.00 0.03 0.00 99 1010.8
20260905114258 12 330 0.0 0.0 0.00 0.03 0.00 99 1010.7
20260905112106 12 330 0.0 0.0 0.00 0.03 0.00 99 1010.6
20260905110605 11 330 0.0 0.0 0.00 0.03 0.00 98 1010.6
20260905105104 11 330 0.0 0.0 0.00 0.03 0.00 97 1010.5
20260905103603 11 330 0.0 0.0 0.00 0.03 0.00 97 1010.2
20260905102103 11 330 0.0 0.0 0.00 0.03 0.00 97 1010.0
20260905101857 11 330 0.0 0.0 0.00 0.03 0.00 97 1009.6
20260905101724 12 330 0.0 0.0 0.00 0.03 0.00 96 1009.8
20260905101549 12 330 0.0 0.0 0.00 0.03 0.00 96 1009.6
20260905101541 12 330 0.0 0.0 0.00 0.03 0.00 96 1009.6
20260905101533 12 330 0.0 0.0 0.00 0.03 0.00 96 1009.6
20260905101528 11 330 0.0 0.0 0.00 0.03 0.00 97 1009.8
20260905101337 11 330 0.0 0.0 0.00 0.03 0.00 97 1009.8
20260905101327 11 330 0.0 0.0 0.00 0.03 0.00 97 1009.7
20260905101317 11 330 0.0 0.0 0.00 0.03 0.00 97 1009.7
20260905101309 11 330 0.0 0.0 0.00 0.03 0.00 97 1009.9
20260905101138 12 330 0.0 0.0 0.00 0.03 0.00 97 1009.8
20260905070548 12 330 0.0 0.0 0.00 0.03 0.00 96 1009.7
20260905065044 12 330 0.0 0.0 0.00 0.03 0.00 96 1010.0
20260905063544 13 330 0.0 0.0 0.00 0.03 0.00 96 1009.9
20260905062040 13 330 0.0 0.0 0.00 0.03 0.00 96 1010.0
20260905060539 13 330 0.0 0.0 0.00 0.03 0.00 96 1009.9
20260905055740 13 330 0.0 0.0 0.00 0.03 0.00 96 1009.9
20260905055004 13 330 0.0 0.0 0.00 0.03 0.00 96 1009.9
20260905052035 13 330 0.0 0.0 0.00 0.03 0.00 95 1009.9
20260905051235 14 330 0.0 0.0 0.00 0.03 0.00 96 1010.0
20260905045034 14 330 0.0 0.0 0.00 0.03 0.00 96 1010.3
20260905043536 14 330 0.0 0.0 0.00 0.03 0.00 96 1010.5
20260905042035 14 330 0.0 0.0 0.00 0.03 0.00 95 1010.5
20260905040535 15 330 0.0 0.0 0.00 0.03 0.00 95 1010.6
20260905035034 15 330 0.0 0.0 0.00 0.03 0.03 95 1010.4
20260905033528 15 330 0.0 0.0 0.00 0.03 0.03 94 1010.3
20260905032027 15 330 0.0 0.0 0.00 0.03 0.03 94 1010.4
20260905030526 15 330 0.0 0.0 0.00 0.03 0.03 94 1010.4
20260905025027 16 330 0.0 0.0 0.00 0.03 0.03 94 1010.5
20260905023528 16 330 0.0 0.0 0.00 0.03 0.03 94 1010.6
20260905022029 16 330 0.0 0.0 0.00 0.03 0.03 94 1010.7
20260905020528 16 330 0.0 0.0 0.00 0.03 0.03 94 1010.9
20260905015028 16 330 0.0 0.0 0.00 0.03 0.03 93 1010.9
20260905013528 17 330 0.0 0.0 0.00 0.03 0.03 93 1011.0
20260905012722 17 330 0.0 0.0 0.00 0.03 0.03 93 1011.0
20260905010527 17 330 0.0 0.0 0.00 0.03 0.03 92 1010.8
20260905010415 17 330 0.0 0.0 0.03 0.03 0.03 91 1010.8
20260905003528 18 330 0.0 0.0 0.03 0.03 0.03 91 1010.9
20260905002025 18 330 0.0 11.3 0.03 0.03 0.03 89 1011.1
20260905000526 18 306 0.0 8.0 0.03 0.03 0.03 87 1010.8
20260904235716 18 350 0.0 0.0 0.00 0.00 0.00 88 1010.2
20260904233526 18 350 0.0 1.6 0.00 0.00 0.00 86 1010.1
20260904232026 19 350 0.0 0.0 0.00 0.00 0.00 85 1010.2
20260904230525 20 350 0.0 1.6 0.00 0.00 0.00 83 1010.0
20260904225026 20 350 0.0 0.0 0.00 0.00 0.00 82 1010.1
20260904223525 21 350 0.0 0.0 0.00 0.00 0.00 81 1010.1
20260904222714 21 350 0.0 0.0 0.00 0.00 0.00 79 1010.0
20260904221910 21 350 0.0 0.0 0.00 0.00 0.00 76 1010.0
20260904215023 22 350 0.0 0.0 0.00 0.00 0.00 76 1010.0
20260904214926 22 351 0.0 1.6 0.00 0.00 0.00 73 1009.9
20260904212023 22 34 0.0 0.0 0.00 0.00 0.00 73 1010.1
20260904210523 23 355 0.0 1.6 0.00 0.00 0.00 67 1010.2
20260904205024 23 286 0.0 1.6 0.00 0.00 0.00 66 1010.1
20260904203523 23 301 0.0 4.8 0.00 0.00 0.00 64 1010.1
20260904202022 23 355 0.0 4.8 0.00 0.00 0.00 63 1010.1
20260904201219 24 340 0.0 1.6 0.00 0.00 0.00 65 1010.0
20260904200422 24 315 0.0 3.2 0.00 0.00 0.00 59 1010.0
20260904194222 24 343 0.0 3.2 0.00 0.00 0.00 59 1010.0
20260904193426 25 78 0.0 6.4 0.00 0.00 0.00 59 1010.0
20260904190518 24 219 0.0 1.6 0.00 0.00 0.00 59 1010.1
20260904185017 24 333 0.0 1.6 0.00 0.00 0.00 64 1010.0
20260904184210 25 16 0.0 1.6 0.00 0.00 0.00 63 1010.2
20260904182017 26 0 0.0 8.0 0.00 0.00 0.00 56 1010.0
20260904180514 25 321 0.0 11.3 0.00 0.00 0.00 56 1010.2
20260904175015 26 5 0.0 0.0 0.00 0.00 0.00 57 1010.3
20260904174902 27 348 0.0 1.6 0.00 0.00 0.00 51 1009.9
20260904172015 26 0 0.0 1.6 0.00 0.00 0.00 57 1010.0
20260904170513 26 161 0.0 8.0 0.00 0.00 0.00 54 1010.4
20260904165012 26 19 1.6 12.9 0.00 0.00 0.00 56 1010.6
20260904164157 26 294 0.0 11.3 0.00 0.00 0.00 56 1010.3
20260904162702 26 279 1.6 17.7 0.00 0.00 0.00 60 1010.4
20260904160507 25 308 0.0 1.6 0.00 0.00 0.00 60 1010.5
20260904155005 26 15 0.0 12.9 0.00 0.00 0.00 63 1010.6
20260904153505 25 355 1.6 16.1 0.00 0.00 0.00 63 1010.8
20260904152005 24 298 0.0 0.0 0.00 0.00 0.00 66 1010.8
20260904150459 24 338 0.0 8.0 0.00 0.00 0.00 72 1010.8
20260904144958 24 292 1.6 8.0 0.00 0.00 0.00 70 1010.8
20260904144152 23 355 0.0 0.0 0.00 0.00 0.00 74 1010.9
20260904141959 23 30 0.0 4.8 0.00 0.00 0.00 78 1010.9
20260904140457 21 332 0.0 8.0 0.00 0.00 0.00 82 1010.7